Weather History for CWVU - January, 2013

Change the Weather History Date:

Sunday, January 20, 2013

  Actual Average Record
Temperature  
Mean Temperature 44 °F -  
Max Temperature 51 °F - - ()
Min Temperature 38 °F - - ()
Degree Days  
Heating Degree Days 20    
Moisture  
Dew Point 38 °F    
Average Humidity 80    
Maximum Humidity 97    
Minimum Humidity 47    
Precipitation  
Precipitation 0.00 in - - ()
Sea Level Pressure  
Sea Level Pressure 29.72 in    
Wind  
Wind Speed 13 mph ()    
Max Wind Speed 37 mph    
Max Gust Speed 46 mph    
T = Trace of Precipitation, MM = Missing Value Source: Averaged Metar Reports

Daily Weather History Graph

Daily Weather History Graph

Search for Another Location

Airport or City:

Trip Planner

Search our weather history database for the weather conditions in past years. The results will help you decide how hot, cold, wet, or windy it might be!

Date:

Astronomy

Jan. 20, 2013 Rise Set
Actual Time 7:54 AM AST 5:18 PM AST
Civil Twilight 7:22 AM AST 5:50 PM AST
Nautical Twilight 6:47 AM AST 6:26 PM AST
Astronomical Twilight 6:12 AM AST 7:00 PM AST
Moon 12:18 PM AST (1/20) 2:21 AM AST (1/20)
Length of Visible Light 10h 28m
Length of Day
9h 24m
Waxing Gibbous, 66% of the Moon is Illuminated
Jan 20
Waxing Gibbous
Jan 27
Full
Feb 3
Last Quarter
Feb 10
New
Feb 17
First Quarter

Hourly Weather History & Observations

Time (AST) Temp. Windchill Dew Point Humidity Pressure Visibility Wind Dir Wind Speed Gust Speed Precip Events Conditions
12:00 AM 41.2 °F 38.2 °F 34.2 °F 76% 30.03 in - NW 4.6 mph - N/A   Unknown
1:00 AM 39.0 °F 34.0 °F 37.0 °F 93% 30.01 in - East 6.9 mph - N/A   Unknown
2:00 AM 39 °F - 38 °F 96% 29.99 in - ESE 9.2 mph - -  
2:00 AM 39.4 °F 33.2 °F 38.3 °F 96% 29.99 in - ESE 9.2 mph - N/A   Unknown
3:00 AM 39.4 °F 32.7 °F 38.3 °F 96% 29.98 in - East 10.4 mph - N/A   Unknown
4:00 AM 41.0 °F 34.3 °F 39.4 °F 94% 29.95 in - SE 11.5 mph - N/A   Unknown
5:00 AM 42.3 °F 36.8 °F 40.3 °F 93% 29.90 in - SSE 9.2 mph - N/A   Unknown
6:00 AM 42.4 °F 34.4 °F 41.2 °F 95% 29.85 in - SE 17.3 mph 23.0 mph N/A   Unknown
7:00 AM 43.9 °F 36.8 °F 43.2 °F 97% 29.82 in - SSE 15.0 mph - N/A   Unknown
8:00 AM 46 °F - 44 °F 91% 29.79 in - South 17.3 mph - -  
8:00 AM 45.9 °F 38.8 °F 44.2 °F 94% 29.79 in - South 17.3 mph 23.0 mph N/A   Unknown
9:00 AM 45.9 °F 38.8 °F 44.1 °F 93% 29.75 in - SSE 17.3 mph 26.5 mph N/A   Unknown
10:00 AM 45.0 °F 37.4 °F 43.7 °F 95% 29.71 in - SSE 18.4 mph 25.3 mph N/A   Unknown
11:00 AM 46.9 °F - 44.1 °F 90% 29.68 in - SSE 19.6 mph 26.5 mph N/A   Unknown
12:00 PM 49.1 °F - 43.7 °F 82% 29.60 in - SSE 20.7 mph 31.1 mph N/A   Unknown
1:00 PM 51.1 °F - 42.8 °F 73% 29.56 in - South 20.7 mph 34.5 mph N/A   Unknown
2:00 PM 50 °F - 42 °F 67% 29.54 in - South 18.4 mph - -  
2:00 PM 50.4 °F - 42.4 °F 74% 29.54 in - South 18.4 mph 33.4 mph N/A   Unknown
3:00 PM 49.5 °F - 40.6 °F 72% 29.52 in - South 18.4 mph 32.2 mph N/A   Unknown
4:00 PM 47.3 °F - 39.9 °F 76% 29.54 in - SSW 16.1 mph 26.5 mph N/A   Unknown
5:00 PM 46.8 °F - 39.4 °F 75% 29.54 in - SSW 16.1 mph 25.3 mph N/A   Unknown
6:00 PM 45.7 °F 39.5 °F 39.9 °F 80% 29.55 in - SSW 13.8 mph 23.0 mph N/A   Unknown
7:00 PM 45.0 °F 37.1 °F 33.1 °F 63% 29.56 in - SW 19.6 mph 33.4 mph N/A   Unknown
8:00 PM 44 °F - 30 °F 47% 29.58 in - WSW 29.9 mph - -  
8:00 PM 44.1 °F 34.0 °F 30.4 °F 59% 29.58 in - WSW 29.9 mph 40.3 mph N/A   Unknown
9:00 PM 43.7 °F 33.2 °F 28.8 °F 56% 29.60 in - WSW 32.2 mph 41.4 mph N/A   Unknown
10:00 PM 41.7 °F 30.1 °F 25.3 °F 52% 29.61 in - West 34.5 mph 42.6 mph N/A   Unknown
11:00 PM 39.2 °F 26.3 °F 24.1 °F 55% 29.63 in - West 36.8 mph 46.0 mph N/A   Unknown